Location: Unspecified
(58.9933°N, 5.6375°E)
Time: 14:06:58
(UTC+01:00)

Cosmos 1674 - Visible Passes

Search period start: 11 December 2017 00:00
Search period end: 21 December 2017 00:00
Orbit: 498 x 521 km, 82.5° (Epoch: 10 December)

Date Brightness Start Highest point End Pass type
(mag) Time Alt. Az. Time Alt. Az. Time Alt. Az.
13 Dec 5.1 08:13:05 10° NNE 08:15:48 18° ENE 08:18:29 10° ESE visible
14 Dec 5.3 07:56:22 10° NNE 07:58:46 16° NE 08:01:09 10° E visible
15 Dec 5.3 07:39:41 10° NNE 07:41:43 14° NE 07:43:44 10° E visible
16 Dec 5.4 07:23:08 10° NNE 07:24:40 12° NE 07:26:11 10° ENE visible
17 Dec 5.6 07:06:53 10° NE 07:07:35 10° NE 07:08:17 10° ENE visible
18 Dec 3.9 08:23:32 10° N 08:27:13 41° ENE 08:30:49 10° SE visible
19 Dec 4.2 08:06:40 10° N 08:10:14 35° ENE 08:13:44 10° SE visible
20 Dec 4.4 07:49:49 10° N 07:53:15 29° ENE 07:56:36 10° SE visible
